This is the latest recevied weather packets stored in our database for station/object KM5R. If no packets are shown the sender has not sent any weather packets the latest 10 day(s).
| Time | Temp. | Humidity | Pressure | Rain* | Wind** | Luminosity | Snow |
|---|---|---|---|---|---|---|---|
| 1777664769 | 12.22° C | 88% | 1016.3 hPa | 0 mm | - | 142 W/m² | - |
| 1777664465 | 12.22° C | 89% | 1016.3 hPa | 0 mm | - | 167 W/m² | - |
| 1777664162 | 12.22° C | 89% | 1016.6 hPa | 0 mm | - | 188 W/m² | - |
| 1777663557 | 11.67° C | 89% | 1016.5 hPa | 0 mm | - | 155 W/m² | - |
| 1777663255 | 11.67° C | 89% | 1016.6 hPa | 1.78 mm | - | 122 W/m² | - |
| 1777662952 | 12.22° C | 90% | 1016.8 hPa | 1.78 mm | - | 124 W/m² | - |
| 1777662649 | 12.22° C | 90% | 1016.6 hPa | 0 mm | - | 92 W/m² | - |
| 1777661737 | 12.22° C | 90% | 1016.9 hPa | 1.27 mm | - | 148 W/m² | - |
| 1777661433 | 12.22° C | 90% | 1017.3 hPa | 1.27 mm | - | 95 W/m² | - |
| 1777660526 | 12.22° C | 90% | 1018.1 hPa | 1.78 mm | - | 22 W/m² | - |
| 1777660222 | 12.22° C | 90% | 1017.5 hPa | 0 mm | - | 45 W/m² | - |
| 1777659616 | 12.22° C | 90% | 1017.8 hPa | 0 mm | - | 32 W/m² | - |
| 1777659314 | 12.22° C | 90% | 1017 hPa | 0 mm | - | 49 W/m² | - |
| 1777659010 | 12.22° C | 90% | 1016.9 hPa | 1.27 mm | - | 57 W/m² | - |
| 1777658404 | 12.22° C | 90% | 1017.3 hPa | 0 mm | - | 62 W/m² | - |
| 1777656890 | 12.22° C | 91% | 1017.5 hPa | 0 mm | - | 33 W/m² | - |
| 1777655067 | 12.22° C | 91% | 1017.1 hPa | 0 mm | - | 29 W/m² | - |
| 1777654765 | 12.22° C | 91% | 1016.9 hPa | 0 mm | - | 45 W/m² | - |
| 1777654160 | 12.22° C | 91% | 1016.5 hPa | 0 mm | - | 46 W/m² | - |
| 1777653554 | 11.67° C | 91% | 1017.2 hPa | 0 mm | - | 50 W/m² | - |
| 1777652946 | 11.67° C | 91% | 1017.4 hPa | 0 mm | - | 36 W/m² | - |
| 1777652643 | 11.67° C | 92% | 1017.3 hPa | 0 mm | - | 43 W/m² | - |
| 1777652340 | 11.67° C | 91% | 1017.2 hPa | 0 mm | - | 42 W/m² | - |
| 1777652037 | 11.67° C | 92% | 1017.3 hPa | 0 mm | - | 39 W/m² | - |
| 1777651734 | 11.67° C | 92% | 1017.2 hPa | 0 mm | - | 34 W/m² | - |
* Rain latest hour (hover to see other rain measurements)
** Current wind speed in m/s (hover to see current wind gust speed)